Find Starlink 2081

NORAD ID: 47366 Int'l Des: 2021-005 Owner: SPXS Country: US Constellation: starlink operational
LEOCIRCULARSTARLINK_TYPE

Live Position

Loading 3D Globe...

About Starlink 2081

Description loading...

Upcoming Passes

Passes for default location (London). Set your location on the main map for personalized predictions.

Altitude History

Loading altitude history...

Two-Line Element Set

1 47366U 21005T 26123.40726272 .00010270 00000-0 34220-3 0 9992
2 47366 53.1593 168.2006 0001295 85.1908 274.9241 15.31706344291404
Epoch: May 3, 2026 • Age: 8 hours

Current Status

Altitude 476.4 km
Velocity 7.63 km/s
Sub-Earth Point 53.11°N, 131.64°E
Launch Date Jan 20, 2021
Age 5.2 years
Type internet

Technical Details

Classification Payload
Mass 260.00 kg
Dry Mass 248.00 kg
Total Mass 260.00 kg
Length 0.20 m
Diameter 2.80 m
Span 9.00 m
Shape Box + pan
Manufacturer SPXS
Bus Type Starlink
Phase Status In Orbit
Owner/State SPXS/US

Most Searched